Location: Rowland
(34.5359°N, 79.2929°W)
Time: 16:29:57
(UTC+00:00)

SR - Pass Details

Date: 09 October 2022
Orbit: 577 x 874 km, 66.7° (Epoch: 05 December)

Event Time Altitude Azimuth Distance (km) Brightness Sun altitude
Rises 01:35:58 0° 245° (WSW) 3,432 ? -34.3°
Reaches altitude 10° 01:39:05 10° 262° (W) 2,515 ? -34.9°
Maximum altitude 01:43:23 21° 309° (NW) 1,878 ? -35.8°
Drops below altitude 10° 01:47:41 10° 356° (N) 2,515 ? -36.6°
Enters shadow 01:49:41 - 8° (N) 3,078 ? -37.0°
Sets 01:50:49 0° 13° (NNE) 3,431 - -37.2°
